Starlink 32325

operational
NORAD ID: 61588 Int'l Des: 2024-187 Owner: SPXS Country: US Constellation: starlink
LEOCIRCULAR

About Starlink 32325

Description loading...

Live Position

Loading 3D Globe...

Upcoming Passes

Altitude History

Altitude vs Time

uPlot chart will show altitude changes over time

Two-Line Element Set

1 61588U 24187Q 25259.96502416 -.00000970 00000-0 -20633-4 0 9992
2 61588 53.1602 152.1104 0001704 65.7363 294.3815 15.30178904 52482
Epoch: Sep 16, 2025 • Age: 27 hours

Current Status

Altitude 479.4 km
Velocity 7.63 km/s
Sub-Earth Point 46.18°N, 116.05°W
Launch Date Oct 18, 2024
Age 0.9 years
Type internet

Technical Details

Classification Payload
Mass 730.00 kg
Dry Mass 700.00 kg
Total Mass 730.00 kg
Length 0.30 m
Diameter 4.10 m
Span 29.00 m
Shape Box + pan
Manufacturer SPXS
Bus Type Starlink V2M
Phase Status In Orbit
Owner/State SPXS/US

Large Constellations

Loading constellations...